Temperature
18 18 18 18 18 18 18 18 18 18 18 17 17 17 17 17 18 18 18 17 17 17 17 17 17 17 17 17 17 17 17 16 16 16 16 16 16 16 16 16 15 15 15
18 18 18 18 18 18 17 17 18 18 18 17 17 17 17 17 17 17 17 17 17 17 17 17 17 17 17 17 17 17 17 16 16 16 16 16 16 16 16 16 16 15 15
18 18 18 18 18 17 17 17 17 17 17 17 17 17 17 17 17 17 17 17 17 17 17 17 17 17 17 17 17 17 17 16 16 16 16 16 16 16 16 16 16 15 15
18 18 18 18 17 17 17 17 17 17 17 17 17 17 17 17 17 17 17 17 17 17 17 17 17 17 17 17 17 17 16 16 16 16 16 16 16 16 16 16 16 15 15
18 18 18 18 17 17 17 17 17 17 17 17 17 17 17 17 17 17 17 17 17 17 17 17 17 17 17 17 17 16 16 16 16 16 16 16 16 16 16 16 16 15 15
18 18 18 17 17 17 17 17 17 17 17 17 17 17 17 17 17 17 17 17 17 17 17 17 17 17 17 17 16 16 16 16 16 16 16 16 16 16 16 16 15 15 15
18 18 18 17 17 17 17 17 17 17 17 17 17 17 17 17 17 17 17 17 17 17 17 17 17 17 17 16 16 16 16 16 16 16 16 16 16 16 15 15 15 15 15
18 18 18 18 17 17 17 17 17 17 17 17 17 17 17 17 17 17 17 17 17 17 17 17 17 17 16 16 16 16 16 16 16 16 16 16 16 16 15 15 15 15 15
18 18 18 17 17 17 17 17 17 17 17 17 17 17 17 17 17 17 17 17 17 17 17 17 17 17 17 16 16 16 16 16 16 16 16 16 15 15 15 15 15 15 15
17 17 17 17 17 17 17 17 17 17 17 17 17 17 18 18 18 18 18 18 17 17 17 17 17 17 17 17 16 16 16 16 16 16 16 15 15 15 15 15 15 15 15
17 17 17 17 17 17 17 17 17 17 17 17 17 17 17 17 18 18 18 18 18 18 17 17 17 17 17 17 17 17 16 16 16 16 16 16 15 15 15 15 15 15 15
17 17 17 17 17 17 17 17 17 17 17 17 17 17 17 17 18 18 18 18 18 18 18 17 17 17 17 17 17 17 16 16 16 16 16 15 15 15 15 15 15 15 15
17 17 17 17 17 17 17 17 17 17 17 17 17 17 17 17 17 17 18 18 18 18 18 17 17 17 17 17 17 17 16 16 16 16 16 15 15 15 15 15 15 15 15
18 17 17 17 17 17 17 17 17 17 17 17 17 17 17 17 17 17 17 17 17 17 17 17 17 17 17 17 17 16 16 16 16 16 15 15 15 15 15 15 15 15 15
17 17 17 17 17 17 17 17 17 17 17 17 17 17 17 17 17 17 17 17 17 17 17 17 17 17 17 16 16 16 16 16 15 15 15 15 15 15 15 15 15 14 14
17 17 17 17 17 17 17 17 17 17 17 16 16 16 17 17 17 17 17 17 17 17 17 16 16 16 16 16 16 16 16 16 15 15 15 15 15 14 14 14 14 14 14
17 17 17 17 17 17 17 17 16 16 16 16 16 16 16 16 16 16 16 16 16 16 16 16 16 16 16 16 15 15 15 15 15 15 14 14 14 14 14 14 14 13 13
17 17 17 17 17 16 16 16 16 16 16 16 16 16 16 16 16 16 16 16 16 16 16 16 15 15 15 15 15 15 14 14 14 14 14 14 13 13 13 13 13 13 13
17 17 16 16 16 16 16 16 16 16 16 16 16 16 16 16 15 15 15 15 15 15 15 15 15 14 14 14 14 14 14 13 13 13 13 13 13 13 12 12 12 12 12
16 16 16 16 16 16 16 16 16 16 16 15 15 15 15 15 15 15 15 15 15 15 15 14 14 14 14 13 13 13 13 13 12 12 12 12 12 12 11 11 11 11 11
16 16 16 16 16 16 16 16 15 15 15 15 15 14 14 14 14 14 14 14 14 14 14 14 13 13 13 13 13 12 12 12 11 11 11 11 11 11 11 10 10 10 9
16 15 15 15 15 15 15 15 15 15 15 14 14 14 14 14 14 13 13 13 13 13 13 13 13 12 12 12 11 11 11 11 11 10 10 10 10 10 9 9 9 9 8
15 15 15 15 15 15 15 14 14 14 14 14 14 14 13 13 13 13 12 12 12 12 12 12 11 11 11 10 10 10 10 10 10 9 9 9 9 9 8 8 8 8 8
15 15 15 14 14 14 14 14 14 13 13 13 13 13 12 12 12 12 12 11 11 11 11 10 11 10 10 10 10 9 9 9 8 8 8 8 8 8 8 7 7 7 7
14 14 14 14 14 13 13 13 13 13 13 12 12 12 12 11 11 11 11 11 10 10 10 10 9 9 9 9 9 9 8 8 8 7 7 7 7 7 7 7 6 6 6
14 14 14 13 13 13 12 12 12 12 12 12 11 11 11 10 10 10 10 10 9 9 9 8 8 8 8 8 8 8 7 7 7 7 6 6 6 6 6 6 6 5 5
Wind_Speed
5 6 5 5 5 5 5 4 3 3 2 3 6 8 9 9 10 11 12 14 14 14 13 13 12 11 11 11 10 10 10 9 9 9 9 9 9 8 8 8 8 8 7
8 6 4 5 5 6 7 6 5 4 3 3 3 7 10 11 11 11 12 13 14 14 13 13 12 12 11 11 10 10 10 9 9 9 9 9 9 8 8 8 8 8 7
11 8 5 4 5 7 7 5 4 3 2 2 3 5 8 10 11 12 13 13 13 13 14 13 13 12 12 11 11 10 10 10 10 10 10 10 9 9 9 8 8 8 8
12 8 5 4 6 6 5 3 3 2 2 2 3 3 4 7 10 12 13 13 13 12 14 14 14 14 13 12 12 12 11 11 11 11 11 11 10 10 9 9 9 9 9
12 9 5 4 6 4 3 3 3 3 2 2 3 3 3 4 6 10 10 12 14 14 14 14 15 15 14 13 13 12 12 12 12 12 12 12 12 11 11 10 10 10 10
11 9 5 5 6 3 3 3 3 2 2 3 2 2 2 3 4 5 8 11 13 14 15 14 14 14 15 15 14 13 13 13 13 13 13 13 12 13 13 12 12 12 12
10 8 5 5 4 4 4 5 3 3 2 2 3 2 3 1 3 4 5 6 9 13 14 15 14 14 13 16 16 15 15 14 14 14 14 14 14 14 14 14 14 14 14
10 9 6 4 4 4 4 4 3 3 1 2 3 3 1 4 3 3 3 5 6 9 11 14 14 15 15 14 16 18 17 16 15 15 14 14 14 15 15 15 15 15 15
9 8 8 5 4 5 4 4 4 5 3 1 2 4 3 3 3 3 3 4 5 5 6 10 13 15 16 15 15 17 18 17 15 14 14 14 14 14 14 15 15 15 16
7 8 8 6 5 4 4 4 4 4 4 2 1 1 3 4 3 1 3 2 3 5 6 6 10 13 14 14 15 16 17 17 16 15 13 13 14 13 13 13 13 14 14
5 7 7 6 5 4 4 4 4 4 3 4 2 2 1 1 2 3 2 3 2 3 4 5 6 9 13 13 14 15 16 17 17 16 14 13 13 13 12 12 12 12 12
4 5 7 6 5 4 5 5 5 5 4 3 3 3 3 2 2 3 3 3 3 3 2 2 3 6 10 12 13 14 15 16 16 15 14 13 12 11 11 11 11 10 10
4 6 5 5 5 5 6 5 5 4 4 4 3 3 2 2 3 3 3 2 2 2 1 1 2 4 7 9 11 12 13 15 15 13 12 11 11 10 9 9 8 8 8
5 6 6 6 6 7 6 5 4 4 3 3 4 3 2 2 2 3 4 3 1 1 2 2 2 1 2 5 8 9 8 11 12 11 10 9 8 8 7 7 6 6 5
5 6 6 6 6 6 5 5 4 4 3 3 3 3 2 1 1 1 2 3 4 2 1 2 2 2 0 2 3 5 5 6 8 9 8 8 7 7 6 5 4 3 3
5 6 6 6 6 5 5 5 4 3 4 3 3 3 2 1 1 1 2 2 3 4 3 1 1 2 3 3 2 3 3 3 3 4 5 6 6 5 3 3 3 2 1
5 5 6 5 5 5 5 4 4 4 4 3 2 3 3 2 2 1 2 2 2 3 3 1 1 3 4 4 5 6 6 5 5 4 3 2 2 2 2 2 2 2 2
4 5 4 5 5 5 4 5 5 4 4 4 3 3 2 2 2 1 2 2 1 2 3 2 1 3 3 3 3 4 5 5 5 6 5 4 4 4 4 4 5 5 4
4 4 4 4 4 3 4 4 4 4 4 3 3 3 3 4 3 2 2 2 2 3 3 4 2 2 3 3 3 4 5 5 6 7 7 6 6 6 7 7 6 6 5
4 4 4 4 3 3 3 4 5 6 6 5 4 3 3 3 3 3 3 3 3 5 5 5 3 3 3 2 3 3 4 4 4 7 8 8 7 7 6 6 5 5 5
5 4 4 4 4 3 3 6 7 7 7 7 6 5 5 7 8 5 4 3 4 5 5 4 3 3 3 3 3 2 2 2 3 4 4 5 6 6 5 4 3 3 3
6 6 5 6 5 4 7 9 8 8 7 7 6 6 7 8 11 12 12 10 8 6 5 4 4 4 3 3 3 3 2 2 2 4 3 4 5 4 5 4 4 3 3
7 7 6 7 7 7 10 10 10 8 7 6 5 6 6 7 9 9 12 14 13 12 9 6 6 4 3 1 2 3 3 3 1 3 2 3 4 3 5 7 8 8 7
7 7 6 7 7 8 10 11 12 9 8 7 6 6 7 6 7 8 9 9 8 7 7 6 6 4 4 2 2 2 2 2 3 4 4 2 3 3 4 7 10 10 10
8 7 6 7 8 7 9 11 11 8 8 7 7 6 7 7 8 10 9 9 8 7 11 13 12 11 10 9 7 4 4 4 3 3 3 2 2 3 3 3 9 11 11
8 8 8 7 7 7 9 11 11 8 8 7 6 7 9 8 9 10 8 8 8 5 5 7 8 9 9 9 9 5 3 3 2 1 3 2 2 3 3 3 5 9 10
Wind_Direction
156 159 163 171 180 178 177 184 193 196 182 166 155 150 156 158 156 161 167 172 171 168 167 166 165 165 165 164 164 165 164 162 162 160 160 160 160 159 157 159 161 160 161
161 158 162 176 189 191 192 193 191 175 169 156 155 154 162 163 167 168 172 178 179 177 175 176 175 175 176 176 176 177 177 176 174 173 174 173 173 173 173 174 174 175 175
161 159 158 171 189 187 177 175 176 154 152 156 148 151 161 169 173 176 179 182 186 187 186 185 186 186 187 188 188 188 189 188 187 187 188 187 187 187 188 189 190 190 190
164 157 156 171 184 174 160 152 149 135 143 152 155 161 159 172 178 182 184 187 190 193 197 196 196 197 198 199 199 199 199 200 199 199 199 199 200 201 201 202 203 203 204
164 157 158 170 173 153 147 159 144 144 154 171 177 171 169 170 182 188 191 196 198 200 201 204 206 205 207 208 209 210 210 209 210 209 209 210 212 212 213 215 216 215 217
164 156 158 169 162 140 140 145 142 139 157 166 167 160 191 193 187 191 198 200 204 207 207 207 211 214 216 216 216 218 218 218 217 217 217 217 219 219 221 223 224 225 226
164 156 162 164 155 156 164 156 139 135 143 127 91 38 345 318 223 206 201 197 205 209 209 211 213 217 221 223 224 224 224 224 223 222 222 222 223 224 227 229 230 232 233
171 167 161 166 160 151 151 152 141 138 139 134 129 109 16 336 316 239 210 202 205 205 208 212 215 219 222 223 227 229 229 229 228 227 225 225 227 229 230 232 234 236 238
175 167 166 164 164 158 164 168 157 148 159 184 152 146 154 216 275 303 243 217 202 198 208 211 215 220 221 222 226 231 231 231 231 230 229 229 230 233 235 236 238 240 242
173 171 167 167 165 164 174 181 163 154 149 167 198 197 177 160 162 266 307 266 221 208 207 211 216 219 219 217 223 229 231 231 232 231 231 230 230 232 235 238 241 244 245
175 172 171 164 167 172 177 172 155 156 159 163 173 180 154 133 139 149 234 287 291 240 216 213 209 213 213 212 217 226 229 229 230 231 231 231 232 234 237 239 243 248 249
183 181 174 171 173 176 183 182 170 165 169 160 161 159 156 161 184 164 191 233 250 268 246 219 211 214 213 212 218 225 226 227 229 230 232 233 233 235 239 242 245 250 252
191 193 182 179 181 184 187 181 173 176 172 169 172 172 172 185 172 162 163 201 236 281 309 280 233 220 215 212 217 225 227 226 225 227 230 232 233 236 240 244 248 254 258
199 190 182 184 187 186 186 176 175 182 174 179 186 178 175 190 172 170 169 161 153 331 346 307 322 305 216 202 216 215 216 221 222 223 226 229 231 233 236 240 243 250 257
199 190 186 188 190 184 179 169 175 182 169 177 183 178 176 182 159 160 159 163 158 173 255 304 330 336 7 152 197 187 189 206 215 220 222 225 229 231 230 229 231 239 257
190 181 186 184 183 183 180 172 175 179 176 188 181 174 174 172 131 112 125 128 146 158 183 249 298 342 32 65 78 124 126 138 188 205 210 220 225 226 226 228 225 222 254
176 174 180 179 178 179 177 172 181 178 179 189 188 174 184 164 140 121 102 107 122 135 156 230 7 20 40 50 56 70 76 80 80 93 129 156 162 162 159 148 138 125 94
169 170 168 171 178 176 175 176 184 178 171 170 177 163 170 148 123 109 100 101 120 134 145 148 38 25 37 47 61 63 60 67 73 70 83 89 99 105 111 107 105 100 86
151 154 151 157 162 163 167 173 162 148 141 141 150 146 146 129 118 97 95 89 85 91 104 119 93 37 36 42 51 49 50 46 65 62 68 74 83 94 103 104 103 96 86
130 129 132 143 144 145 147 143 131 122 113 99 90 97 104 117 124 115 97 91 96 91 93 101 89 50 34 19 49 46 41 31 36 38 47 60 66 79 83 91 96 94 87
114 108 108 109 110 115 123 127 126 121 116 105 90 84 85 91 89 94 100 101 105 105 101 97 87 68 43 35 23 8 42 36 32 28 30 39 44 48 46 58 67 67 63
99 97 96 96 92 100 103 112 122 119 116 114 107 95 87 81 84 81 80 80 89 107 114 106 95 92 73 48 30 41 47 48 21 357 37 28 33 28 26 35 33 25 3
95 90 88 92 93 94 101 108 113 115 110 108 109 106 97 88 85 85 77 72 67 71 86 109 103 99 94 60 67 54 53 66 35 326 38 32 12 12 18 33 30 19 5
99 96 91 94 96 93 99 103 104 99 93 88 92 101 103 94 91 96 90 78 68 58 68 84 103 99 97 90 85 98 101 75 33 3 32 53 353 346 354 8 14 13 8
101 97 95 95 96 91 94 103 107 102 96 84 79 83 96 96 95 100 97 91 77 61 67 80 87 85 78 71 72 72 60 69 40 351 2 58 342 336 337 336 1 0 357
104 99 88 83 92 95 95 102 110 110 105 96 82 75 78 89 89 93 97 98 91 75 77 74 65 62 57 52 54 70 99 96 87 353 333 36 351 6 352 323 329 343 349
Height
1562 1564 1565 1567 1569 1571 1572 1574 1575 1576 1577 1578 1579 1579 1580 1581 1581 1582 1582 1583 1584 1584 1585 1585 1586 1587 1587 1588 1588 1589 1590 1590 1591 1592 1592 1593 1593 1594 1594 1595 1595 1595 1596
1562 1564 1566 1567 1569 1571 1573 1574 1575 1577 1578 1578 1579 1580 1581 1581 1582 1583 1583 1584 1584 1585 1585 1586 1587 1587 1588 1588 1589 1589 1590 1591 1591 1592 1592 1593 1593 1594 1594 1595 1595 1596 1596
1562 1564 1565 1567 1569 1571 1573 1574 1576 1577 1578 1579 1579 1580 1581 1582 1582 1583 1584 1584 1584 1585 1585 1586 1587 1587 1588 1588 1589 1589 1590 1590 1591 1592 1592 1593 1593 1594 1594 1595 1595 1595 1596
1562 1563 1565 1567 1569 1571 1572 1574 1575 1576 1578 1579 1580 1581 1581 1582 1583 1583 1584 1584 1585 1585 1585 1586 1586 1587 1587 1588 1588 1589 1590 1590 1591 1591 1592 1592 1593 1593 1594 1594 1594 1595 1595
1561 1563 1565 1567 1569 1570 1572 1573 1575 1576 1577 1579 1580 1580 1581 1582 1582 1583 1583 1584 1584 1585 1585 1585 1586 1586 1587 1587 1588 1588 1589 1589 1590 1590 1591 1591 1592 1592 1593 1593 1593 1594 1594
1560 1563 1564 1566 1568 1570 1571 1573 1574 1576 1577 1578 1579 1580 1581 1581 1581 1582 1583 1583 1584 1584 1585 1585 1585 1585 1586 1586 1587 1587 1588 1588 1589 1589 1589 1590 1590 1591 1591 1592 1592 1592 1593
1560 1562 1564 1565 1567 1569 1570 1572 1573 1575 1576 1577 1578 1579 1580 1580 1581 1581 1582 1582 1583 1583 1584 1584 1584 1585 1585 1585 1586 1586 1586 1587 1587 1587 1588 1588 1589 1589 1589 1590 1590 1591 1591
1558 1560 1562 1564 1566 1568 1569 1571 1572 1573 1575 1576 1577 1578 1579 1580 1579 1580 1581 1581 1581 1582 1582 1583 1583 1584 1584 1584 1584 1585 1585 1585 1585 1585 1586 1586 1586 1587 1587 1588 1588 1588 1589
1557 1559 1561 1563 1565 1566 1568 1569 1571 1572 1573 1575 1576 1577 1577 1577 1578 1579 1579 1580 1580 1580 1581 1581 1582 1582 1582 1583 1583 1583 1584 1583 1583 1584 1584 1584 1584 1585 1585 1585 1586 1586 1586
1555 1557 1559 1561 1563 1565 1566 1568 1569 1570 1572 1573 1574 1575 1576 1576 1577 1577 1578 1578 1579 1579 1579 1580 1580 1580 1581 1581 1581 1582 1582 1582 1582 1582 1582 1582 1582 1582 1582 1583 1583 1583 1583
1553 1555 1557 1559 1561 1563 1564 1566 1567 1569 1570 1571 1572 1573 1574 1574 1575 1575 1575 1576 1577 1577 1577 1578 1578 1578 1579 1579 1579 1580 1580 1580 1580 1580 1580 1580 1580 1580 1580 1580 1580 1581 1581
1551 1553 1555 1557 1559 1561 1562 1564 1565 1567 1568 1569 1570 1571 1572 1573 1573 1573 1574 1574 1574 1575 1575 1576 1576 1576 1577 1577 1577 1578 1578 1578 1578 1578 1578 1578 1577 1577 1577 1578 1577 1578 1578
1548 1550 1552 1554 1556 1558 1560 1561 1563 1564 1565 1567 1568 1569 1570 1571 1571 1572 1572 1572 1573 1573 1573 1574 1574 1574 1574 1575 1575 1575 1575 1575 1576 1575 1575 1575 1575 1575 1575 1575 1574 1574 1574
1546 1548 1550 1552 1554 1556 1557 1559 1560 1561 1563 1564 1565 1566 1567 1568 1569 1569 1570 1571 1571 1571 1571 1571 1571 1572 1572 1572 1572 1573 1573 1573 1573 1572 1572 1572 1572 1572 1572 1572 1571 1571 1571
1544 1546 1548 1549 1551 1553 1554 1556 1557 1558 1560 1561 1562 1564 1565 1566 1566 1567 1568 1568 1569 1569 1569 1569 1569 1569 1569 1569 1569 1570 1570 1570 1570 1569 1569 1569 1569 1569 1569 1569 1568 1568 1567
1541 1543 1545 1547 1548 1550 1551 1553 1554 1555 1557 1558 1559 1560 1561 1563 1563 1564 1565 1565 1566 1567 1567 1567 1567 1567 1567 1567 1567 1567 1567 1567 1567 1567 1567 1567 1566 1566 1566 1565 1565 1564 1564
1539 1541 1543 1544 1546 1547 1548 1550 1551 1552 1554 1555 1556 1557 1558 1559 1560 1561 1562 1562 1563 1564 1564 1564 1564 1564 1564 1564 1564 1564 1564 1564 1564 1564 1564 1563 1563 1563 1562 1562 1561 1560 1560
1537 1538 1540 1541 1543 1544 1545 1546 1548 1549 1551 1552 1553 1554 1555 1556 1557 1558 1558 1559 1560 1560 1561 1561 1561 1562 1562 1562 1562 1562 1561 1561 1561 1561 1560 1560 1560 1559 1559 1558 1557 1557 1556
1534 1536 1537 1539 1540 1541 1542 1544 1545 1546 1547 1549 1550 1551 1552 1552 1553 1554 1555 1556 1557 1557 1558 1558 1558 1559 1559 1559 1559 1559 1559 1559 1558 1558 1557 1557 1557 1556 1555 1555 1554 1553 1552
1532 1534 1535 1536 1537 1539 1540 1541 1542 1542 1544 1545 1546 1548 1549 1549 1550 1551 1552 1553 1554 1555 1555 1556 1556 1556 1556 1556 1557 1556 1556 1556 1556 1555 1555 1554 1554 1553 1552 1552 1551 1550 1549
1530 1531 1533 1534 1535 1536 1537 1538 1539 1540 1541 1543 1544 1545 1546 1547 1547 1548 1549 1550 1551 1552 1553 1553 1553 1554 1554 1554 1554 1554 1554 1554 1553 1553 1553 1552 1552 1551 1550 1549 1548 1547 1546
1529 1530 1531 1532 1533 1534 1535 1536 1537 1538 1539 1541 1541 1542 1543 1544 1545 1546 1547 1548 1549 1550 1550 1551 1551 1551 1551 1552 1552 1552 1552 1552 1552 1552 1551 1550 1550 1549 1548 1547 1546 1545 1543
1528 1529 1530 1531 1531 1533 1534 1535 1536 1537 1538 1539 1540 1541 1541 1542 1544 1544 1545 1546 1547 1548 1549 1549 1549 1549 1550 1550 1551 1550 1550 1550 1550 1550 1550 1548 1548 1547 1546 1545 1544 1542 1541
1527 1528 1528 1529 1530 1532 1533 1534 1535 1536 1537 1538 1539 1540 1541 1542 1543 1544 1545 1545 1546 1546 1547 1547 1548 1548 1549 1549 1549 1549 1549 1549 1548 1548 1547 1547 1546 1545 1544 1543 1542 1540 1538
1526 1527 1528 1529 1529 1531 1532 1533 1534 1535 1536 1537 1538 1539 1540 1541 1543 1544 1544 1544 1545 1545 1546 1547 1547 1548 1548 1548 1548 1548 1547 1547 1546 1546 1546 1545 1544 1543 1543 1541 1540 1538 1536
1525 1526 1527 1528 1529 1530 1532 1533 1534 1535 1535 1537 1538 1539 1540 1541 1543 1544 1544 1545 1545 1546 1547 1547 1547 1547 1548 1548 1547 1547 1546 1546 1545 1545 1545 1545 1543 1542 1541 1540 1539 1537 1535